Regional Weather Roundup
Issued by NWS Sterling, VA

Home | Current Version | Previous Version | Graphics & Text | Print | Product List | Glossary On
Versions: 1 2 3 4 5 6 7 8 9 10 11 12 13 14 15 16 17 18 19 20 21 22 23 24 25 26 27 28 29 30 31 32 33 34 35 36 37 38 39 40 41 42 43 44 45 46 47 48 49 50
000
ASUS41 KLWX 300211
RWRLWX

REGIONAL WEATHER ROUNDUP
NATIONAL WEATHER SERVICE BALTIMORE MD/WASHINGTON DC
1000 PM EDT SAT APR 29 2017

Note: "FAIR" indicates few or no clouds below 12,000 feet
with no significant weather and/or obstructions to visibility.
 TC=TEMPERATURE CELSIUS

 * =Non NWS site. Station does not report precipitation (e.g. rain,
    snow, etc.), thunder, or fog.

DCZ001-MDZ009-015-VAZ040>042-051-053>054-300300-
WASHINGTON METRO

CITY           SKY/WX    TMP DP  RH WIND       PRES   REMARKS
WASHINGTON NAT MOCLDY    78  72  81 S9        30.07R
DULLES         PTCLDY    79  68  69 S5        30.07S
ANDREWS AFB    CLEAR     78  69  75 S7        30.07R
FT BELVOIR     PTCLDY    73  70  91 CALM      30.07S
QUANTICO       CLOUDY    75  71  87 SW7       30.08R
COLLEGE PARK*  CLEAR     72  69  90 CALM      30.07R
LEESBURG*      PTCLDY    75  73  94 CALM      30.08S
MANASSAS*        N/A     77  71  82 S3        30.08R

$$

MDZ006>007-011-014-300300-
BALTIMORE METRO

CITY           SKY/WX    TMP DP  RH WIND       PRES   REMARKS
BWI AIRPORT    PTCLDY    75  68  78 CALM      30.06R
MD SCIENCE CTR   N/A     77  62  59 MISG      30.07R
MARTIN STATE   PTCLDY    73  68  83 CALM      30.08R
ANNAPOLIS      CLEAR     71  69  93 SE5       30.07R
FORT MEADE*    PTCLDY    70  64  83 CALM      30.09S

$$

MDZ012-015-019>023-300300-
MARYLAND EASTERN SHORE

CITY           SKY/WX    TMP DP  RH WIND       PRES   REMARKS
OCEAN CITY     MOCLDY    69  66  90 SW5       30.11R
SALISBURY      PTCLDY    76  73  91 SW5       30.10R
BAY BRIDGE AP* CLEAR     72  66  83 CALM      30.07S
CAMBRIDGE*     CLEAR     75  72  88 SE3       30.09R
EASTON*        CLEAR     77  72  83 SW3       30.11R

$$

MDZ017>025-300300-
SOUTHERN MARYLAND

CITY           SKY/WX    TMP DP  RH WIND       PRES   REMARKS
PATUXENT RIVER PTCLDY    79  74  84 SW3       30.09R
ST INIGOES     PTCLDY    81  71  71 SW8       30.09R
LEONARDTOWN*   PTCLDY    77  70  78 CALM      30.11R

$$

MDZ003>005-300300-
NORTH CENTRAL MARYLAND

CITY           SKY/WX    TMP DP  RH WIND       PRES   REMARKS
FREDERICK*     PTCLDY    70  70 100 CALM      30.09S
HAGERSTOWN APT PTCLDY    77  62  59 E7        30.08S
WESTMINSTER*   CLEAR     73  66  78 CALM      30.10S

$$

MDZ501>502-300300-
WESTERN MARYLAND

CITY           SKY/WX    TMP DP  RH WIND       PRES   REMARKS
OAKLAND*       NOT AVBL
CUMBERLAND*    CLEAR     70  64  83 N3        30.12R

$$

VAZ025>031-300300-
SHENANDOAH VALLEY

CITY           SKY/WX    TMP DP  RH WIND       PRES   REMARKS
WINCHESTER*    CLOUDY    66  63  88 NW3       30.08S
FRONT ROYAL*   PTCLDY    70  68  94 CALM      30.07F
LURAY*         MOCLDY    72  70  94 CALM      30.10S
NEW MARKET*    CLOUDY    72  68  88 SW3       30.09R
STAUNTON*      PTCLDY    73  67  81 S3        30.14R
WAYNESBORO*    PTCLDY    77  70  79 S10       30.14R

$$

WVZ021-048>050-054>055-300300-
EASTERN WEST VIRGINIA PANHANDLE

CITY           SKY/WX    TMP DP  RH WIND       PRES   REMARKS
MARTINSBURG    CLEAR     71  66  84 CALM      30.07R
PETERSBURG*    CLOUDY    66  64  91 CALM      30.10S

$$

VAZ036>039-050-300300-
CENTRAL FOOTHILLS

CITY           SKY/WX    TMP DP  RH WIND       PRES   REMARKS
CHARLOTTESVILL PTCLDY    79  70  74 S8        30.09R
CULPEPER*      PTCLDY    77  72  85 CALM      30.09S
ORANGE*        CLEAR     73  70  88 CALM      30.10R
GORDONSVILLE*  PTCLDY    74  71  91 CALM      30.09R
WARRENTON*     PTCLDY    80  68  68 S5        30.08S

$$

VAZ055>057-300300-
NORTH AND CENTRAL PIEDMONT

CITY           SKY/WX    TMP DP  RH WIND       PRES   REMARKS
FREDERICKSBRG* CLOUDY    79  72  80 S7        30.08S
STAFFORD*      MOCLDY    78  72  82 CALM      30.11S

$$

NCZ024-NYZ072-PAZ021-071-VAZ022-071-300300-
OTHER REGIONAL OBSERVATIONS

CITY           SKY/WX    TMP DP  RH WIND       PRES   REMARKS
NEW YORK CITY  CLOUDY    75  57  53 VRB5      30.11R
PHILADELPHIA   CLOUDY    74  62  66 S5        30.08R
PITTSBURGH     CLOUDY    60  59  96 N9        30.13S
ROANOKE        MOCLDY    77  67  71 S6        30.15R
RICHMOND       MOCLDY    76  71  85 SW7       30.11R
RALEIGH        MOCLDY    78  67  68 S3        30.16R

$$

ANZ530>537-300300-
MARINE OBSERVATIONS

STATION/POSITION TIME  TEMP    WIND        PRES
                       AIR SEA DIR/SP/G
                 (UTC) (F)     (DEG/KT/KT) (MB)
THOMAS PT LIGHT  0100   70 61  180/ 11/ 11   N/A
BALT KEY BRIDGE  0130   77     160/  2/  3 1018.1R
COVE POINT       0130   79     210/  5/  5 1019.3R
LEWISETTA        0130   80 71  250/  3/  3 1018.9R
SOLOMONS ISLAND  0130   74 63   80/  2/  2   N/A
PINEY POINT      0130          220/  2/  3   N/A

$$




USA.gov is the U.S. government's official web portal to all federal, state and local government web resources and services.